| time (UTC) | temp C | wind direction | speed KPH | gust KPH | rain 1hr cm | rain 24hr cm | rain mn cm | humidity % | barometer mb |
| 20260503050057 | 5 | 5 | 4.8 | 14.5 | 0.08 | 0.81 | 0.56 | 94 | 1014.5 |
| 20260503045547 | 5 | 87 | 4.8 | 14.5 | 0.08 | 0.81 | 0.56 | 94 | 1014.6 |
| 20260503045047 | 5 | 43 | 1.6 | 16.1 | 0.08 | 0.79 | 0.56 | 94 | 1014.5 |
| 20260503044559 | 5 | 63 | 3.2 | 16.1 | 0.08 | 0.79 | 0.56 | 94 | 1014.6 |
| 20260503044049 | 5 | 37 | 3.2 | 14.5 | 0.10 | 0.79 | 0.56 | 94 | 1014.5 |
| 20260503043549 | 5 | 0 | 6.4 | 16.1 | 0.08 | 0.76 | 0.53 | 94 | 1014.5 |
| 20260503043051 | 5 | 41 | 4.8 | 16.1 | 0.10 | 0.76 | 0.53 | 94 | 1014.5 |
| 20260503042547 | 5 | 10 | 4.8 | 16.1 | 0.10 | 0.76 | 0.53 | 94 | 1014.6 |
| 20260503042048 | 5 | 46 | 6.4 | 20.9 | 0.08 | 0.74 | 0.51 | 94 | 1014.7 |
| 20260503041555 | 5 | 19 | 3.2 | 20.9 | 0.08 | 0.74 | 0.51 | 94 | 1014.6 |
| 20260503041046 | 5 | 49 | 4.8 | 20.9 | 0.08 | 0.74 | 0.48 | 94 | 1014.5 |
| 20260503040546 | 5 | 290 | 6.4 | 17.7 | 0.08 | 0.74 | 0.48 | 94 | 1014.6 |
| 20260503040055 | 5 | 5 | 4.8 | 22.5 | 0.08 | 0.71 | 0.46 | 94 | 1014.7 |
| 20260503035546 | 5 | 5 | 6.4 | 22.5 | 0.08 | 0.71 | 0.46 | 93 | 1014.7 |
| 20260503035048 | 5 | 5 | 1.6 | 20.9 | 0.08 | 0.69 | 0.46 | 93 | 1014.6 |
| 20260503034606 | 5 | 5 | 6.4 | 20.9 | 0.08 | 0.69 | 0.46 | 93 | 1014.7 |
| 20260503034049 | 5 | 55 | 4.8 | 12.9 | 0.08 | 0.66 | 0.43 | 93 | 1014.8 |
| 20260503033550 | 5 | 62 | 3.2 | 22.5 | 0.08 | 0.66 | 0.43 | 93 | 1014.7 |
| 20260503033057 | 5 | 42 | 8.0 | 22.5 | 0.08 | 0.64 | 0.41 | 93 | 1014.7 |
| 20260503032547 | 5 | 348 | 4.8 | 19.3 | 0.08 | 0.64 | 0.41 | 93 | 1014.8 |
| 20260503032137 | 5 | 360 | 6.4 | 17.7 | 0.08 | 0.64 | 0.41 | 93 | 1014.7 |
| 20260503031559 | 5 | 15 | 6.4 | 17.7 | 0.08 | 0.64 | 0.41 | 93 | 1014.8 |
| 20260503031047 | 5 | 5 | 4.8 | 9.7 | 0.08 | 0.64 | 0.38 | 93 | 1014.6 |
| 20260503030549 | 5 | 5 | 3.2 | 19.3 | 0.08 | 0.64 | 0.38 | 93 | 1014.7 |
| 20260503030057 | 5 | 323 | 6.4 | 19.3 | 0.08 | 0.61 | 0.36 | 93 | 1014.7 |
| 20260503025549 | 5 | 5 | 4.8 | 19.3 | 0.08 | 0.61 | 0.36 | 93 | 1014.6 |
| 20260503025046 | 5 | 40 | 6.4 | 20.9 | 0.08 | 0.58 | 0.36 | 93 | 1014.6 |
| 20260503024602 | 5 | 95 | 4.8 | 20.9 | 0.08 | 0.58 | 0.36 | 93 | 1014.7 |
| 20260503024047 | 5 | 5 | 3.2 | 17.7 | 0.08 | 0.58 | 0.36 | 93 | 1014.7 |
| 20260503023547 | 5 | 22 | 6.4 | 17.7 | 0.08 | 0.56 | 0.33 | 93 | 1014.7 |
| 20260503023100 | 5 | 0 | 4.8 | 16.1 | 0.08 | 0.56 | 0.33 | 93 | 1014.7 |
| 20260503022548 | 5 | 5 | 3.2 | 14.5 | 0.08 | 0.56 | 0.33 | 93 | 1014.8 |
| 20260503022049 | 6 | 360 | 4.8 | 14.5 | 0.08 | 0.56 | 0.33 | 93 | 1014.8 |
| 20260503021555 | 6 | 44 | 4.8 | 14.5 | 0.08 | 0.56 | 0.30 | 93 | 1014.9 |
| 20260503021047 | 6 | 19 | 4.8 | 14.5 | 0.08 | 0.56 | 0.30 | 93 | 1014.7 |
| 20260503020549 | 6 | 15 | 4.8 | 14.5 | 0.08 | 0.53 | 0.28 | 93 | 1014.7 |
| 20260503020058 | 6 | 69 | 4.8 | 19.3 | 0.08 | 0.53 | 0.28 | 93 | 1014.8 |
| 20260503015547 | 6 | 14 | 3.2 | 19.3 | 0.10 | 0.53 | 0.28 | 93 | 1014.7 |
| 20260503015046 | 6 | 5 | 3.2 | 19.3 | 0.13 | 0.51 | 0.28 | 93 | 1014.7 |
| 20260503014553 | 6 | 5 | 3.2 | 12.9 | 0.15 | 0.51 | 0.28 | 93 | 1014.8 |
| 20260503014050 | 6 | 348 | 3.2 | 12.9 | 0.15 | 0.48 | 0.25 | 93 | 1014.8 |
| 20260503013548 | 6 | 92 | 3.2 | 14.5 | 0.18 | 0.48 | 0.25 | 93 | 1014.8 |
| 20260503013105 | 6 | 333 | 3.2 | 19.3 | 0.18 | 0.48 | 0.25 | 93 | 1014.9 |
| 20260503012548 | 6 | 38 | 4.8 | 19.3 | 0.18 | 0.46 | 0.23 | 93 | 1014.9 |
| 20260503012047 | 6 | 33 | 4.8 | 17.7 | 0.18 | 0.46 | 0.23 | 92 | 1015.0 |
| 20260503011607 | 6 | 5 | 3.2 | 14.5 | 0.20 | 0.46 | 0.23 | 92 | 1014.9 |
| 20260503011047 | 6 | 55 | 3.2 | 12.9 | 0.18 | 0.46 | 0.20 | 92 | 1015.0 |
| 20260503010549 | 6 | 10 | 3.2 | 14.5 | 0.18 | 0.46 | 0.20 | 92 | 1015.0 |
| 20260503010121 | 6 | 46 | 3.2 | 14.5 | 0.18 | 0.43 | 0.18 | 92 | 1015.1 |
| 20260503005547 | 6 | 61 | 1.6 | 14.5 | 0.15 | 0.41 | 0.18 | 92 | 1015.0 |
| 20260503005050 | 6 | 71 | 1.6 | 6.4 | 0.10 | 0.36 | 0.13 | 92 | 1015.1 |
| 20260503004557 | 6 | 69 | 1.6 | 12.9 | 0.08 | 0.36 | 0.10 | 92 | 1015.1 |
| 20260503004050 | 6 | 0 | 1.6 | 12.9 | 0.08 | 0.33 | 0.08 | 92 | 1015.0 |
| 20260503003549 | 6 | 57 | 3.2 | 12.9 | 0.08 | 0.30 | 0.08 | 92 | 1015.1 |
| 20260503003118 | 6 | 0 | 3.2 | 11.3 | 0.05 | 0.28 | 0.05 | 92 | 1015.1 |
| 20260503002547 | 6 | 0 | 3.2 | 9.7 | 0.03 | 0.28 | 0.03 | 92 | 1015.2 |
| 20260503002047 | 6 | 75 | 1.6 | 8.0 | 0.03 | 0.28 | 0.03 | 92 | 1015.2 |
| 20260503001553 | 6 | 72 | 1.6 | 8.0 | 0.00 | 0.25 | 0.00 | 92 | 1015.2 |
| 20260503001047 | 6 | 32 | 1.6 | 11.3 | 0.00 | 0.25 | 0.00 | 92 | 1015.3 |
| 20260503000546 | 6 | 62 | 3.2 | 11.3 | 0.00 | 0.25 | 0.00 | 91 | 1015.3 |
| 20260503000106 | 6 | 82 | 1.6 | 14.5 | 0.00 | 0.25 | 0.00 | 91 | 1015.3 |
| 20260502235547 | 6 | 98 | 3.2 | 17.7 | 0.00 | 0.25 | 0.00 | 91 | 1015.4 |
| 20260502235047 | 6 | 108 | 3.2 | 17.7 | 0.00 | 0.25 | 0.00 | 91 | 1015.3 |
| 20260502234603 | 6 | 78 | 1.6 | 17.7 | 0.00 | 0.25 | 0.00 | 91 | 1015.3 |
| 20260502234047 | 6 | 92 | 6.4 | 12.9 | 0.00 | 0.23 | 0.00 | 91 | 1015.4 |
| 20260502233547 | 6 | 94 | 1.6 | 14.5 | 0.00 | 0.23 | 0.00 | 91 | 1015.3 |
| 20260502233054 | 6 | 89 | 3.2 | 14.5 | 0.00 | 0.23 | 0.00 | 91 | 1015.3 |
| 20260502232550 | 6 | 46 | 0.0 | 11.3 | 0.00 | 0.23 | 0.00 | 91 | 1015.4 |
| 20260502232047 | 6 | 0 | 3.2 | 12.9 | 0.00 | 0.23 | 0.00 | 91 | 1015.3 |
| 20260502231556 | 6 | 0 | 3.2 | 12.9 | 0.00 | 0.23 | 0.00 | 91 | 1015.3 |
| 20260502231048 | 6 | 0 | 1.6 | 11.3 | 0.00 | 0.23 | 0.00 | 91 | 1015.3 |
| 20260502230547 | 6 | 0 | 1.6 | 12.9 | 0.00 | 0.23 | 0.00 | 91 | 1015.4 |
| 20260502230058 | 6 | 69 | 1.6 | 12.9 | 0.00 | 0.23 | 0.00 | 90 | 1015.4 |
| 20260502225546 | 6 | 107 | 3.2 | 11.3 | 0.00 | 0.23 | 0.23 | 91 | 1015.4 |
| 20260502225047 | 6 | 117 | 3.2 | 11.3 | 0.00 | 0.23 | 0.23 | 90 | 1015.5 |
| 20260502224601 | 6 | 116 | 3.2 | 11.3 | 0.00 | 0.23 | 0.23 | 90 | 1015.5 |
| 20260502224047 | 6 | 88 | 1.6 | 12.9 | 0.00 | 0.23 | 0.23 | 90 | 1015.4 |
| 20260502223547 | 6 | 0 | 0.0 | 12.9 | 0.00 | 0.23 | 0.23 | 91 | 1015.4 |
| 20260502223051 | 6 | 76 | 4.8 | 12.9 | 0.00 | 0.23 | 0.23 | 90 | 1015.4 |
| 20260502222550 | 6 | 13 | 1.6 | 8.0 | 0.00 | 0.23 | 0.23 | 90 | 1015.6 |
| 20260502222047 | 6 | 82 | 1.6 | 9.7 | 0.00 | 0.23 | 0.23 | 90 | 1015.4 |
| 20260502221553 | 6 | 0 | 1.6 | 14.5 | 0.00 | 0.23 | 0.23 | 90 | 1015.5 |
| 20260502221047 | 6 | 0 | 3.2 | 14.5 | 0.00 | 0.23 | 0.23 | 90 | 1015.4 |
| 20260502220549 | 6 | 38 | 1.6 | 11.3 | 0.00 | 0.23 | 0.23 | 90 | 1015.3 |
| 20260502220053 | 6 | 50 | 1.6 | 20.9 | 0.00 | 0.23 | 0.23 | 90 | 1015.5 |
| 20260502215546 | 6 | 76 | 6.4 | 20.9 | 0.00 | 0.25 | 0.23 | 89 | 1015.4 |
| 20260502215046 | 6 | 74 | 1.6 | 14.5 | 0.00 | 0.25 | 0.23 | 89 | 1015.5 |
| 20260502214605 | 6 | 80 | 3.2 | 14.5 | 0.00 | 0.25 | 0.23 | 89 | 1015.5 |
| 20260502214047 | 6 | 67 | 1.6 | 11.3 | 0.00 | 0.25 | 0.23 | 89 | 1015.5 |
| 20260502213547 | 6 | 71 | 1.6 | 12.9 | 0.00 | 0.25 | 0.23 | 89 | 1015.5 |
| 20260502213054 | 6 | 15 | 3.2 | 12.9 | 0.00 | 0.25 | 0.23 | 89 | 1015.5 |
| 20260502212548 | 6 | 22 | 3.2 | 14.5 | 0.00 | 0.25 | 0.23 | 89 | 1015.5 |
| 20260502212047 | 6 | 12 | 1.6 | 14.5 | 0.00 | 0.25 | 0.23 | 89 | 1015.4 |
| 20260502211602 | 6 | 5 | 3.2 | 16.1 | 0.00 | 0.25 | 0.23 | 89 | 1015.6 |
| 20260502211047 | 6 | 351 | 3.2 | 16.1 | 0.00 | 0.25 | 0.23 | 89 | 1015.7 |
| 20260502210548 | 6 | 31 | 3.2 | 12.9 | 0.00 | 0.25 | 0.23 | 89 | 1015.6 |
| 20260502210054 | 6 | 28 | 1.6 | 12.9 | 0.00 | 0.25 | 0.23 | 89 | 1015.5 |
| 20260502205547 | 6 | 11 | 3.2 | 14.5 | 0.00 | 0.48 | 0.23 | 89 | 1015.5 |
| 20260502205048 | 6 | 36 | 3.2 | 17.7 | 0.00 | 0.48 | 0.23 | 89 | 1015.5 |
| 20260502204554 | 6 | 12 | 4.8 | 17.7 | 0.00 | 0.48 | 0.23 | 89 | 1015.7 |
| 20260502204047 | 6 | 5 | 3.2 | 17.7 | 0.00 | 0.48 | 0.23 | 89 | 1015.5 |
| 20260502203547 | 6 | 75 | 4.8 | 16.1 | 0.00 | 0.48 | 0.23 | 89 | 1015.5 |
| 20260502203105 | 6 | 93 | 3.2 | 9.7 | 0.00 | 0.48 | 0.23 | 89 | 1015.5 |
| 20260502202547 | 6 | 51 | 1.6 | 9.7 | 0.00 | 0.48 | 0.23 | 89 | 1015.6 |
| 20260502202047 | 6 | 10 | 1.6 | 14.5 | 0.00 | 0.48 | 0.23 | 89 | 1015.5 |
| 20260502201606 | 6 | 49 | 3.2 | 14.5 | 0.00 | 0.48 | 0.23 | 89 | 1015.4 |
| 20260502201045 | 6 | 98 | 3.2 | 14.5 | 0.00 | 0.48 | 0.23 | 89 | 1015.5 |
| 20260502200548 | 6 | 14 | 4.8 | 14.5 | 0.00 | 0.48 | 0.23 | 89 | 1015.5 |
| 20260502200050 | 7 | 79 | 4.8 | 11.3 | 0.00 | 0.48 | 0.23 | 89 | 1015.6 |
| 20260502195547 | 7 | 22 | 1.6 | 14.5 | 0.00 | 0.48 | 0.23 | 89 | 1015.4 |
| 20260502195047 | 7 | 26 | 4.8 | 16.1 | 0.00 | 0.48 | 0.23 | 89 | 1015.4 |
| 20260502194552 | 7 | 13 | 1.6 | 19.3 | 0.00 | 0.48 | 0.23 | 89 | 1015.2 |
| 20260502194047 | 7 | 42 | 6.4 | 19.3 | 0.00 | 0.48 | 0.23 | 88 | 1015.2 |
| 20260502193549 | 7 | 40 | 4.8 | 14.5 | 0.00 | 0.48 | 0.23 | 88 | 1015.1 |
| 20260502193052 | 7 | 11 | 6.4 | 17.7 | 0.00 | 0.48 | 0.23 | 88 | 1015.1 |
| 20260502192545 | 7 | 65 | 6.4 | 17.7 | 0.00 | 0.48 | 0.23 | 88 | 1015.0 |
| 20260502192048 | 7 | 329 | 4.8 | 17.7 | 0.00 | 0.48 | 0.23 | 88 | 1014.9 |
| 20260502191553 | 7 | 71 | 4.8 | 19.3 | 0.00 | 0.48 | 0.23 | 87 | 1014.8 |
| 20260502191048 | 7 | 54 | 6.4 | 19.3 | 0.00 | 0.48 | 0.23 | 87 | 1014.7 |
| 20260502190547 | 7 | 0 | 6.4 | 19.3 | 0.00 | 0.48 | 0.23 | 87 | 1014.8 |
| 20260502190053 | 7 | 5 | 3.2 | 22.5 | 0.00 | 0.48 | 0.23 | 87 | 1014.7 |
| 20260502185547 | 7 | 61 | 4.8 | 22.5 | 0.00 | 0.48 | 0.23 | 86 | 1014.4 |
| 20260502185048 | 7 | 48 | 4.8 | 14.5 | 0.00 | 0.48 | 0.23 | 86 | 1014.4 |
| 20260502184552 | 8 | 20 | 4.8 | 14.5 | 0.00 | 0.48 | 0.23 | 85 | 1014.3 |
| 20260502184048 | 8 | 44 | 6.4 | 14.5 | 0.00 | 0.48 | 0.23 | 85 | 1014.5 |
| 20260502183546 | 8 | 38 | 4.8 | 16.1 | 0.00 | 0.48 | 0.23 | 84 | 1014.5 |
| 20260502183057 | 8 | 19 | 6.4 | 16.1 | 0.00 | 0.48 | 0.23 | 83 | 1014.5 |
| 20260502182549 | 9 | 24 | 6.4 | 16.1 | 0.00 | 0.48 | 0.23 | 82 | 1014.3 |
| 20260502182049 | 10 | 30 | 3.2 | 16.1 | 0.00 | 0.48 | 0.23 | 79 | 1014.4 |
| 20260502181556 | 10 | 27 | 3.2 | 9.7 | 0.00 | 0.48 | 0.23 | 77 | 1014.3 |
| 20260502181049 | 10 | 0 | 0.0 | 3.2 | 0.00 | 0.48 | 0.23 | 76 | 1014.2 |
| 20260502180547 | 11 | 234 | 0.0 | 8.0 | 0.00 | 0.48 | 0.23 | 76 | 1014.1 |
| 20260502180104 | 11 | 234 | 0.0 | 8.0 | 0.00 | 0.48 | 0.23 | 75 | 1014.1 |
| 20260502164051 | 11 | 242 | 3.2 | 11.3 | 0.00 | 0.66 | 0.23 | 72 | 1014.1 |
| 20260502163550 | 11 | 252 | 1.6 | 12.9 | 0.00 | 0.66 | 0.23 | 72 | 1014.1 |
| 20260502163110 | 11 | 221 | 6.4 | 14.5 | 0.00 | 0.66 | 0.23 | 70 | 1013.9 |
| 20260502162550 | 11 | 216 | 6.4 | 14.5 | 0.00 | 0.66 | 0.23 | 70 | 1014.1 |
| 20260502162049 | 12 | 249 | 8.0 | 16.1 | 0.00 | 0.66 | 0.23 | 69 | 1014.0 |
| 20260502161555 | 12 | 260 | 6.4 | 17.7 | 0.00 | 0.66 | 0.23 | 71 | 1014.1 |
| 20260502161049 | 12 | 239 | 9.7 | 19.3 | 0.00 | 0.66 | 0.23 | 71 | 1013.9 |
| 20260502160550 | 12 | 235 | 9.7 | 19.3 | 0.00 | 0.66 | 0.23 | 73 | 1014.0 |
| 20260502152050 | 12 | 238 | 6.4 | 16.1 | 0.00 | 0.66 | 0.23 | 76 | 1014.0 |
| 20260502151557 | 12 | 246 | 4.8 | 16.1 | 0.00 | 0.66 | 0.23 | 75 | 1014.2 |
| 20260502151049 | 12 | 217 | 6.4 | 16.1 | 0.00 | 0.66 | 0.23 | 74 | 1014.1 |
| 20260502150549 | 12 | 234 | 6.4 | 14.5 | 0.00 | 0.66 | 0.23 | 74 | 1014.1 |
| 20260502130548 | 10 | 313 | 1.6 | 9.7 | 0.23 | 0.69 | 0.23 | 87 | 1014.6 |
| 20260502123545 | 11 | 246 | 3.2 | 20.9 | 0.18 | 0.64 | 0.18 | 80 | 1014.5 |
| 20260502123051 | 12 | 252 | 11.3 | 20.9 | 0.08 | 0.53 | 0.08 | 76 | 1014.7 |
| 20260502122548 | 12 | 242 | 1.6 | 9.7 | 0.00 | 0.46 | 0.00 | 75 | 1014.6 |
| 20260502122047 | 12 | 307 | 1.6 | 11.3 | 0.00 | 0.46 | 0.00 | 74 | 1014.4 |
| 20260502121554 | 13 | 300 | 3.2 | 12.9 | 0.00 | 0.46 | 0.00 | 72 | 1014.4 |
| 20260502121047 | 14 | 30 | 4.8 | 17.7 | 0.00 | 0.46 | 0.00 | 68 | 1014.5 |
| 20260502120546 | 14 | 198 | 8.0 | 17.7 | 0.00 | 0.46 | 0.00 | 69 | 1014.5 |
| 20260502120108 | 14 | 256 | 3.2 | 14.5 | 0.00 | 0.46 | 0.00 | 66 | 1014.5 |
| 20260502115550 | 14 | 221 | 4.8 | 14.5 | 0.00 | 0.46 | 0.00 | 67 | 1014.5 |
| 20260502115048 | 13 | 190 | 3.2 | 17.7 | 0.00 | 0.46 | 0.00 | 68 | 1014.4 |
| 20260502114634 | 13 | 196 | 8.0 | 17.7 | 0.00 | 0.46 | 0.00 | 67 | 1014.5 |
| 20260502114050 | 13 | 215 | 6.4 | 14.5 | 0.00 | 0.46 | 0.00 | 68 | 1014.5 |
| 20260502113549 | 13 | 252 | 3.2 | 16.1 | 0.00 | 0.46 | 0.00 | 70 | 1014.5 |
| 20260502113051 | 13 | 258 | 6.4 | 17.7 | 0.00 | 0.46 | 0.00 | 69 | 1014.5 |
| 20260502112550 | 13 | 239 | 8.0 | 17.7 | 0.00 | 0.46 | 0.00 | 70 | 1014.5 |
| 20260502112050 | 13 | 255 | 9.7 | 16.1 | 0.00 | 0.46 | 0.00 | 71 | 1014.6 |
| 20260502111554 | 13 | 188 | 6.4 | 19.3 | 0.00 | 0.46 | 0.00 | 70 | 1014.7 |
| 20260502111050 | 13 | 248 | 9.7 | 19.3 | 0.00 | 0.46 | 0.00 | 70 | 1014.7 |
| 20260502110550 | 13 | 217 | 3.2 | 17.7 | 0.00 | 0.46 | 0.00 | 72 | 1014.7 |
| 20260502110055 | 13 | 256 | 9.7 | 17.7 | 0.00 | 0.46 | 0.00 | 69 | 1014.8 |
| 20260502105555 | 14 | 223 | 8.0 | 16.1 | 0.00 | 0.46 | 0.00 | 70 | 1015.0 |
| 20260502105050 | 13 | 204 | 8.0 | 16.1 | 0.00 | 0.46 | 0.00 | 71 | 1014.9 |
| 20260502104554 | 13 | 275 | 6.4 | 14.5 | 0.00 | 0.46 | 0.00 | 72 | 1014.9 |
| 20260502104052 | 13 | 179 | 4.8 | 16.1 | 0.00 | 0.46 | 0.00 | 73 | 1015.0 |
| 20260502103550 | 13 | 249 | 8.0 | 16.1 | 0.00 | 0.46 | 0.00 | 72 | 1014.9 |
| 20260502103050 | 13 | 238 | 4.8 | 17.7 | 0.00 | 0.46 | 0.00 | 74 | 1015.0 |
| 20260502102550 | 13 | 240 | 8.0 | 17.7 | 0.00 | 0.46 | 0.00 | 74 | 1015.1 |
| 20260502102049 | 12 | 216 | 6.4 | 16.1 | 0.00 | 0.46 | 0.00 | 74 | 1015.1 |
| 20260502101606 | 12 | 182 | 6.4 | 16.1 | 0.00 | 0.46 | 0.00 | 75 | 1015.1 |
| 20260502101046 | 12 | 208 | 6.4 | 19.3 | 0.00 | 0.46 | 0.00 | 75 | 1015.1 |
| 20260502100550 | 12 | 207 | 8.0 | 19.3 | 0.00 | 0.46 | 0.00 | 75 | 1015.1 |
| 20260502100108 | 12 | 238 | 8.0 | 19.3 | 0.00 | 0.46 | 0.00 | 76 | 1015.2 |
| 20260502091050 | 11 | 234 | 9.7 | 20.9 | 0.00 | 0.46 | 0.00 | 78 | 1015.2 |
| 20260502090553 | 11 | 202 | 8.0 | 17.7 | 0.00 | 0.46 | 0.00 | 79 | 1015.2 |
| 20260502071048 | 8 | 233 | 3.2 | 11.3 | 0.00 | 0.46 | 0.00 | 90 | 1015.1 |
| 20260502070547 | 8 | 247 | 4.8 | 11.3 | 0.00 | 0.46 | 0.00 | 91 | 1015.1 |
| 20260502065550 | 7 | 239 | 4.8 | 8.0 | 0.00 | 0.46 | 0.00 | 92 | 1015.0 |
| 20260502065049 | 7 | 195 | 1.6 | 6.4 | 0.00 | 0.46 | 0.00 | 92 | 1015.1 |
| 20260502064615 | 7 | 0 | 0.0 | 4.8 | 0.00 | 0.46 | 0.00 | 93 | 1015.2 |
| 20260502064050 | 7 | 183 | 0.0 | 3.2 | 0.00 | 0.46 | 0.00 | 93 | 1015.2 |
| 20260502063550 | 7 | 0 | 0.0 | 3.2 | 0.00 | 0.46 | 0.00 | 93 | 1015.2 |
| 20260502063111 | 7 | 0 | 0.0 | 3.2 | 0.00 | 0.46 | 0.00 | 93 | 1015.2 |
| 20260502062555 | 7 | 0 | 0.0 | 1.6 | 0.00 | 0.46 | 0.00 | 93 | 1015.2 |
| 20260502062049 | 6 | 183 | 0.0 | 1.6 | 0.00 | 0.46 | 0.00 | 94 | 1015.1 |
| 20260502061554 | 6 | 0 | 0.0 | 0.0 | 0.00 | 0.46 | 0.00 | 93 | 1015.1 |
| 20260502061049 | 6 | 0 | 0.0 | 0.0 | 0.00 | 0.46 | 0.00 | 93 | 1015.2 |
| 20260502060554 | 6 | 0 | 0.0 | 0.0 | 0.00 | 0.46 | 0.00 | 93 | 1015.1 |
| 20260502060053 | 6 | 0 | 0.0 | 0.0 | 0.00 | 0.46 | 0.00 | 93 | 1015.2 |
| 20260502055552 | 6 | 0 | 0.0 | 0.0 | 0.00 | 0.46 | 0.00 | 94 | 1015.2 |
| 20260502055051 | 5 | 0 | 0.0 | 0.0 | 0.00 | 0.46 | 0.00 | 94 | 1015.1 |
| 20260502054552 | 5 | 0 | 0.0 | 0.0 | 0.00 | 0.46 | 0.00 | 94 | 1015.1 |
| 20260502054050 | 5 | 0 | 0.0 | 0.0 | 0.00 | 0.46 | 0.00 | 94 | 1015.1 |
| 20260502053547 | 5 | 0 | 0.0 | 0.0 | 0.00 | 0.46 | 0.00 | 93 | 1015.1 |
| 20260502053057 | 5 | 0 | 0.0 | 0.0 | 0.00 | 0.46 | 0.00 | 93 | 1015.1 |
| 20260502052549 | 5 | 0 | 0.0 | 0.0 | 0.00 | 0.46 | 0.00 | 93 | 1015.0 |
| 20260502052048 | 5 | 0 | 0.0 | 0.0 | 0.00 | 0.46 | 0.00 | 93 | 1015.1 |
| 20260502051551 | 5 | 0 | 0.0 | 0.0 | 0.00 | 0.46 | 0.00 | 93 | 1015.1 |
| 20260502051051 | 5 | 0 | 0.0 | 0.0 | 0.00 | 0.46 | 0.00 | 93 | 1015.0 |
| 20260502050550 | 5 | 0 | 0.0 | 0.0 | 0.00 | 0.46 | 0.00 | 93 | 1015.1 |